When you browse on this site, cookies collect data to enhance your experience and personalize the content and advertising you see.
Visit our Privacy Policy to learn more. By continuing to use the site, you agree to this use of cookies and data.
  • In Czech Republic
  • List of Countries
  • For 7 days
  • Water Temperature
  • Weather Map
  • Weather Widgets
  • user-avatar
    Login

    Hourly Weather Lindenberg im Allgäu

    Today, 7 June, Sunday

    Time Temperature Precipitation Wind Pressure Humidity
    00:00 +10°C° 0 mm 2 mps 750 mmHg 88%
    01:00 +10°C° 0 mm 2 mps 750 mmHg 90%
    02:00 +10°C° 0 mm 2 mps 750 mmHg 90%
    03:00 +9°C° 0 mm 2 mps 750 mmHg 90%
    04:00 +9°C° 0 mm 2 mps 750 mmHg 90%
    05:00 +12°C° 0 mm 2 mps 750 mmHg 84%
    06:00 +14°C° 0 mm 2 mps 750 mmHg 78%
    07:00 +14°C° 0 mm 3 mps 750 mmHg 72%
    08:00 +14°C° 0 mm 3 mps 750 mmHg 74%
    09:00 +14°C° 0 mm 3 mps 750 mmHg 76%
    10:00 +15°C° 0 mm 2 mps 750 mmHg 78%
    11:00 +16°C° 0 mm 2 mps 751 mmHg 74%
    12:00 +17°C° 0 mm 2 mps 751 mmHg 70%
    13:00 +18°C° 0 mm 2 mps 751 mmHg 66%
    14:00 +19°C° 0 mm 2 mps 751 mmHg 62%
    15:00 +20°C° 0 mm 2 mps 751 mmHg 57%
    16:00 +20°C° 0 mm 3 mps 751 mmHg 53%
    17:00 +20°C° 0 mm 3 mps 751 mmHg 56%
    18:00 +19°C° 0 mm 3 mps 751 mmHg 59%
    19:00 +18°C° 0 mm 3 mps 751 mmHg 62%
    20:00 +16°C° 0 mm 2 mps 751 mmHg 64%
    21:00 +15°C° 0 mm 2 mps 752 mmHg 67%
    22:00 +14°C° 0 mm 2 mps 752 mmHg 70%
    23:00 +14°C° 0 mm 2 mps 752 mmHg 71%

    Tomorrow, 8 June, Monday

    Time Temperature Precipitation Wind Pressure Humidity
    00:00 +14°C° 0 mm 2 mps 752 mmHg 73%
    01:00 +13°C° 0 mm 2 mps 752 mmHg 74%
    02:00 +13°C° 0.2 mm 1 mps 753 mmHg 77%
    03:00 +13°C° 0.2 mm 1 mps 753 mmHg 80%
    04:00 +12°C° 0.2 mm 1 mps 753 mmHg 83%
    05:00 +13°C° 0.1 mm 1 mps 753 mmHg 80%
    06:00 +14°C° 0.1 mm 1 mps 754 mmHg 76%
    07:00 +15°C° 0.1 mm 1 mps 754 mmHg 73%
    08:00 +18°C° 0 mm 1 mps 754 mmHg 66%
    09:00 +18°C° 0 mm 2 mps 754 mmHg 59%
    10:00 +19°C° 0 mm 2 mps 755 mmHg 52%
    11:00 +20°C° 0 mm 2 mps 755 mmHg 49%
    12:00 +21°C° 0 mm 2 mps 754 mmHg 46%
    13:00 +21°C° 0 mm 2 mps 754 mmHg 43%
    14:00 +21°C° 0 mm 2 mps 754 mmHg 44%
    15:00 +21°C° 0 mm 2 mps 754 mmHg 45%
    16:00 +21°C° 0 mm 2 mps 754 mmHg 47%
    17:00 +20°C° 0 mm 2 mps 754 mmHg 52%
    18:00 +19°C° 0 mm 2 mps 754 mmHg 57%
    19:00 +20°C° 0 mm 1 mps 754 mmHg 62%
    20:00 +18°C° 0 mm 1 mps 755 mmHg 68%
    21:00 +15°C° 0 mm 1 mps 755 mmHg 74%
    22:00 +14°C° 0 mm 1 mps 755 mmHg 80%
    23:00 +13°C° 0 mm 1 mps 756 mmHg 83%

    Day after tomorrow, 9 June, Tuesday

    Time Temperature Precipitation Wind Pressure Humidity
    00:00 +13°C° 0 mm 1 mps 756 mmHg 87%
    01:00 +12°C° 0 mm 1 mps 756 mmHg 90%
    02:00 +12°C° 0 mm 1 mps 756 mmHg 91%
    03:00 +11°C° 0 mm 1 mps 756 mmHg 92%
    04:00 +11°C° 0 mm 1 mps 756 mmHg 93%
    05:00 +13°C° 0 mm 1 mps 756 mmHg 87%
    06:00 +14°C° 0 mm 1 mps 756 mmHg 80%
    07:00 +16°C° 0 mm 2 mps 757 mmHg 73%
    08:00 +18°C° 0 mm 2 mps 757 mmHg 66%
    09:00 +19°C° 0 mm 2 mps 757 mmHg 58%
    10:00 +21°C° 0 mm 3 mps 757 mmHg 51%
    11:00 +21°C° 0 mm 3 mps 757 mmHg 48%
    12:00 +22°C° 0 mm 3 mps 756 mmHg 46%
    13:00 +22°C° 0 mm 3 mps 756 mmHg 43%
    14:00 +22°C° 0 mm 3 mps 756 mmHg 44%
    15:00 +22°C° 0 mm 4 mps 756 mmHg 44%
    16:00 +22°C° 0 mm 4 mps 756 mmHg 45%
    17:00 +21°C° 0 mm 4 mps 756 mmHg 51%
    18:00 +20°C° 0 mm 4 mps 756 mmHg 57%
    19:00 +19°C° 0 mm 4 mps 756 mmHg 62%
    20:00 +18°C° 0 mm 4 mps 756 mmHg 67%
    21:00 +16°C° 0 mm 3 mps 757 mmHg 72%
    22:00 +13°C° 0 mm 3 mps 757 mmHg 76%
    23:00 +13°C° 0 mm 3 mps 757 mmHg 76%

    10 June, Wednesday

    Time Temperature Precipitation Wind Pressure Humidity
    00:00 +12°C° 0 mm 3 mps 757 mmHg 76%
    01:00 +12°C° 0 mm 3 mps 757 mmHg 76%
    02:00 +11°C° 0 mm 3 mps 757 mmHg 76%
    03:00 +11°C° 0 mm 3 mps 757 mmHg 76%
    04:00 +11°C° 0 mm 3 mps 757 mmHg 76%
    05:00 +11°C° 0 mm 3 mps 757 mmHg 75%
    06:00 +12°C° 0 mm 3 mps 757 mmHg 74%
    07:00 +12°C° 0 mm 3 mps 757 mmHg 73%
    08:00 +14°C° 0 mm 3 mps 757 mmHg 68%
    09:00 +16°C° 0 mm 3 mps 757 mmHg 63%
    10:00 +18°C° 0 mm 3 mps 757 mmHg 58%
    11:00 +19°C° 0 mm 3 mps 756 mmHg 53%
    12:00 +20°C° 0 mm 3 mps 756 mmHg 49%
    13:00 +22°C° 0 mm 3 mps 756 mmHg 45%
    14:00 +21°C° 0 mm 4 mps 756 mmHg 47%
    15:00 +21°C° 0 mm 4 mps 755 mmHg 49%
    16:00 +20°C° 0 mm 4 mps 755 mmHg 51%
    17:00 +19°C° 0 mm 4 mps 755 mmHg 57%
    18:00 +18°C° 0 mm 4 mps 755 mmHg 64%
    19:00 +17°C° 0 mm 3 mps 755 mmHg 70%
    20:00 +16°C° 0 mm 3 mps 755 mmHg 71%
    21:00 +16°C° 0 mm 3 mps 755 mmHg 73%
    22:00 +14°C° 0 mm 3 mps 755 mmHg 74%
    23:00 +14°C° 0 mm 3 mps 755 mmHg 78%

    11 June, Thursday

    Time Temperature Precipitation Wind Pressure Humidity
    00:00 +14°C° 0 mm 3 mps 754 mmHg 81%
    01:00 +13°C° 0 mm 3 mps 754 mmHg 84%
    02:00 +14°C° 0.1 mm 2 mps 754 mmHg 87%
    03:00 +14°C° 0.1 mm 2 mps 754 mmHg 89%
    04:00 +14°C° 0.1 mm 2 mps 753 mmHg 92%
    05:00 +14°C° 0.3 mm 2 mps 753 mmHg 92%
    06:00 +14°C° 0.3 mm 2 mps 753 mmHg 93%
    07:00 +14°C° 0.3 mm 2 mps 753 mmHg 93%
    08:00 +14°C° 0.2 mm 2 mps 753 mmHg 92%
    09:00 +15°C° 0.2 mm 2 mps 753 mmHg 90%
    10:00 +15°C° 0.2 mm 1 mps 753 mmHg 89%
    11:00 +16°C° 0 mm 1 mps 753 mmHg 86%
    12:00 +18°C° 0 mm 1 mps 753 mmHg 83%
    13:00 +19°C° 0 mm 1 mps 753 mmHg 80%
    14:00 +20°C° 0 mm 1 mps 753 mmHg 77%
    15:00 +20°C° 0 mm 1 mps 753 mmHg 75%
    16:00 +21°C° 0 mm 1 mps 752 mmHg 72%
    17:00 +21°C° 0 mm 1 mps 752 mmHg 75%
    18:00 +20°C° 0 mm 1 mps 752 mmHg 77%
    19:00 +20°C° 0 mm 1 mps 752 mmHg 79%
    20:00 +19°C° 0 mm 1 mps 752 mmHg 83%
    21:00 +18°C° 0 mm 1 mps 752 mmHg 87%
    22:00 +16°C° 0 mm 1 mps 752 mmHg 91%
    23:00 +16°C° 0 mm 1 mps 752 mmHg 92%

    12 June, Friday

    Time Temperature Precipitation Wind Pressure Humidity
    00:00 +15°C° 0 mm 1 mps 752 mmHg 93%
    01:00 +15°C° 0 mm 1 mps 752 mmHg 95%
    02:00 +15°C° 0 mm 1 mps 752 mmHg 95%
    03:00 +14°C° 0 mm 1 mps 752 mmHg 96%
    04:00 +14°C° 0 mm 1 mps 752 mmHg 96%
    05:00 +16°C° 0 mm 1 mps 752 mmHg 91%
    06:00 +17°C° 0 mm 2 mps 752 mmHg 86%
    07:00 +19°C° 0 mm 2 mps 752 mmHg 81%
    08:00 +20°C° 0 mm 2 mps 752 mmHg 75%
    09:00 +23°C° 0 mm 2 mps 752 mmHg 68%
    10:00 +24°C° 0 mm 2 mps 752 mmHg 61%
    11:00 +25°C° 0 mm 2 mps 751 mmHg 59%
    12:00 +26°C° 0 mm 2 mps 751 mmHg 57%
    13:00 +26°C° 0 mm 2 mps 751 mmHg 55%
    14:00 +26°C° 0 mm 2 mps 751 mmHg 55%
    15:00 +27°C° 0 mm 2 mps 750 mmHg 55%
    16:00 +27°C° 0 mm 2 mps 750 mmHg 55%
    17:00 +26°C° 0.1 mm 2 mps 750 mmHg 60%
    18:00 +25°C° 0.1 mm 2 mps 750 mmHg 65%
    19:00 +25°C° 0.1 mm 2 mps 750 mmHg 71%
    20:00 +23°C° 1.2 mm 2 mps 750 mmHg 78%
    21:00 +21°C° 1.2 mm 2 mps 750 mmHg 85%
    22:00 +20°C° 1.2 mm 2 mps 750 mmHg 92%
    23:00 +19°C° 1.2 mm 2 mps 750 mmHg 93%
    Show more